This demonstration page uses our WeatherBlox Daily Observations layout. Learn more.

Left ArrowRight Arrow

39.95238, -75.16362

Hourly Observations for October 7, 2016

Temp ( °F °C ) Dew Point ( °F °C ) Humidity (%) Winds ( mph kmh ) Pressure ( in mb ) Visibility ( mi km ) Precip ( " mm )
12:54 am 00:54 Clear 59 15 53 11.7 81 81 NNE 5 7 30.30 1026 10 16 0.00 0.00
1:54 am 01:54 Clear 57 13.9 52 11.1 83 83 Calm 30.29 1026 10 16 0.00 0.00
2:54 am 02:54 Clear 57 13.9 52 11.1 83 83 NE 5 7 30.27 1025 10 16 0.00 0.00
3:54 am 03:54 Clear 56 13.3 52 11.1 87 87 NNE 5 7 30.26 1025 10 16 0.00 0.00
4:54 am 04:54 Clear 54 12.2 51 10.6 90 90 ENE 5 7 30.26 1025 10 16 0.00 0.00
5:54 am 05:54 Mostly Clear 55 12.8 53 11.7 93 93 NE 6 9 30.27 1025 10 16 0.00 0.00
6:54 am 06:54 Mostly Clear 54 12.2 52 11.1 93 93 NE 5 7 30.27 1025 10 16 0.00 0.00
7:54 am 07:54 Mostly Sunny 57 13.9 53 11.7 87 87 ENE 5 7 30.29 1026 10 16 0.00 0.00
8:54 am 08:54 Partly Cloudy 61 16.1 55 12.8 81 81 ENE 7 11 30.29 1026 10 16 0.00 0.00
9:54 am 09:54 Mostly Sunny 64 17.8 55 12.8 73 73 E 7 11 30.29 1026 10 16 0.00 0.00
10:54 am 10:54 Mostly Sunny 67 19.4 56 13.3 68 68 E 7 11 30.28 1025 10 16 0.00 0.00
11:54 am 11:54 Mostly Sunny 71 21.7 54 12.2 55 55 NE 7 11 30.26 1025 10 16 0.00 0.00
12:54 pm 12:54 Mostly Sunny 74 23.3 54 12.2 50 50 ENE 8 13 30.25 1024 10 16 0.00 0.00
1:54 pm 13:54 Mostly Sunny 75 23.9 55 12.8 50 50 E 8 13 30.23 1024 10 16 0.00 0.00
2:54 pm 14:54 Partly Cloudy 76 24.4 55 12.8 48 48 E 6 9 30.21 1023 10 16 0.00 0.00
3:54 pm 15:54 Mostly Cloudy 77 25 56 13.3 48 48 E 6 9 30.20 1023 10 16 0.00 0.00
4:54 pm 16:54 Mostly Cloudy 75 23.9 57 13.9 54 54 SE 8 13 30.19 1022 10 16 0.00 0.00
5:54 pm 17:54 Mostly Cloudy 71 21.7 58 14.4 63 63 SE 10 17 30.19 1023 10 16 0.00 0.00
6:54 pm 18:54 Mostly Cloudy 67 19.4 57 13.9 71 71 SE 8 13 30.20 1023 10 16 0.00 0.00
7:54 pm 19:54 Mostly Cloudy 64 17.8 58 14.4 81 81 E 6 9 30.19 1023 10 16 0.00 0.00
8:54 pm 20:54 Mostly Cloudy 64 17.8 59 15 84 84 E 8 13 30.19 1022 10 16 0.00 0.00
9:54 pm 21:54 Mostly Cloudy 63 17.2 59 15 87 87 E 7 11 30.19 1023 10 16 0.00 0.00
10:54 pm 22:54 Mostly Cloudy 62 16.7 59 15 90 90 E 9 15 30.18 1022 10 16 0.00 0.00
11:54 pm 23:54 Mostly Cloudy 61 16.1 58 14.4 90 90 ENE 5 7 30.16 1021 10 16 0.00 0.00

Powered by AerisWeather